Temp
-9 -9 -10 -9 -9 -9 -9 -9 -9 -9 -9 -9 -9 -9 -9 -9 -8 -8 -8 -8 -8 -9 -9 -9 -9 -10 -9 -9 -9 -10 -10 -10 -10 -9 -9 -9 -9 -9 -9 -9 -9 -9 -9 -9 -10 -10 -10 -10 -11 -11 -12 -13 -13 -13 -14 -14 -14 -14 -13 -13 -13 -13 -13 -13 -13 -13 -13 -14 -14 -14 -14 -14 -14 -14
-9 -9 -10 -9 -9 -10 -10 -9 -9 -9 -10 -10 -10 -9 -9 -9 -9 -9 -8 -8 -8 -9 -9 -9 -9 -10 -10 -10 -10 -10 -10 -10 -10 -10 -9 -10 -10 -10 -9 -9 -9 -10 -10 -10 -10 -10 -10 -11 -11 -12 -12 -13 -14 -14 -14 -14 -14 -14 -14 -13 -13 -13 -13 -13 -13 -13 -14 -14 -14 -15 -15 -14 -14 -14
-9 -9 -10 -10 -10 -10 -10 -10 -10 -10 -10 -10 -10 -10 -9 -9 -9 -9 -9 -8 -8 -9 -9 -9 -10 -10 -10 -10 -10 -10 -10 -10 -10 -10 -10 -10 -10 -10 -10 -10 -10 -10 -10 -10 -10 -10 -11 -11 -11 -12 -13 -14 -14 -14 -15 -14 -14 -14 -14 -14 -14 -14 -14 -14 -13 -14 -14 -14 -15 -15 -15 -15 -14 -15
-9 -9 -9 -10 -10 -10 -11 -10 -10 -10 -10 -10 -10 -10 -10 -9 -9 -9 -9 -9 -8 -9 -9 -9 -10 -10 -10 -10 -10 -10 -10 -10 -10 -10 -10 -10 -10 -10 -10 -10 -10 -10 -10 -10 -11 -11 -11 -12 -12 -13 -13 -14 -15 -15 -15 -14 -14 -14 -14 -14 -14 -14 -14 -14 -14 -14 -14 -15 -15 -15 -15 -15 -15 -15
-10 -9 -9 -10 -10 -10 -11 -11 -10 -10 -10 -10 -10 -10 -10 -10 -9 -10 -10 -9 -9 -9 -10 -10 -10 -10 -10 -10 -10 -11 -11 -11 -11 -11 -11 -11 -11 -11 -11 -11 -11 -11 -11 -11 -11 -11 -12 -12 -13 -13 -14 -15 -15 -15 -15 -14 -14 -14 -14 -14 -14 -14 -14 -15 -14 -14 -15 -15 -15 -15 -15 -16 -15 -15
-10 -10 -10 -10 -10 -10 -11 -11 -11 -10 -10 -10 -11 -10 -10 -10 -10 -10 -10 -10 -10 -10 -10 -10 -10 -10 -10 -10 -10 -11 -11 -11 -11 -11 -11 -11 -11 -11 -11 -11 -11 -11 -11 -12 -12 -12 -12 -13 -13 -14 -15 -15 -15 -15 -15 -14 -14 -14 -14 -14 -14 -14 -14 -15 -15 -15 -15 -15 -15 -16 -16 -16 -16 -16
-11 -11 -10 -10 -10 -11 -11 -11 -11 -11 -11 -11 -11 -11 -11 -11 -11 -11 -11 -11 -11 -11 -11 -11 -11 -11 -11 -11 -11 -11 -11 -11 -11 -11 -11 -11 -11 -11 -11 -11 -11 -11 -12 -12 -12 -13 -13 -13 -14 -15 -15 -15 -15 -15 -15 -15 -14 -14 -14 -14 -14 -14 -14 -14 -15 -15 -15 -15 -15 -16 -16 -16 -16 -16
-12 -11 -11 -10 -10 -11 -11 -12 -12 -11 -11 -11 -11 -11 -11 -11 -11 -11 -11 -11 -11 -11 -11 -11 -11 -11 -11 -11 -11 -12 -12 -11 -11 -11 -11 -12 -12 -12 -12 -12 -11 -12 -12 -13 -13 -13 -14 -14 -15 -15 -15 -15 -15 -15 -15 -15 -14 -14 -14 -14 -14 -14 -14 -14 -15 -15 -15 -15 -16 -16 -16 -16 -16 -16
-13 -12 -11 -11 -11 -11 -11 -12 -12 -12 -12 -11 -11 -11 -11 -11 -11 -11 -11 -11 -12 -12 -12 -11 -11 -12 -12 -12 -12 -12 -12 -12 -11 -11 -12 -12 -12 -12 -12 -12 -12 -12 -13 -13 -13 -14 -14 -15 -16 -16 -16 -16 -15 -15 -15 -15 -15 -15 -15 -14 -14 -14 -15 -15 -15 -15 -15 -16 -16 -16 -16 -16 -16 -17
-14 -13 -12 -12 -12 -11 -11 -12 -12 -12 -12 -12 -12 -12 -12 -11 -11 -11 -11 -12 -12 -12 -12 -12 -12 -12 -12 -12 -12 -12 -12 -12 -12 -12 -12 -12 -12 -12 -12 -12 -13 -13 -13 -13 -14 -15 -15 -16 -16 -16 -16 -16 -15 -15 -15 -15 -15 -15 -15 -15 -15 -15 -15 -15 -15 -15 -15 -15 -16 -16 -16 -16 -16 -17
-14 -14 -13 -13 -12 -12 -11 -12 -13 -13 -13 -12 -12 -12 -12 -12 -12 -12 -12 -12 -12 -12 -12 -12 -12 -13 -13 -13 -13 -13 -12 -12 -12 -12 -12 -11 -12 -12 -13 -13 -13 -14 -14 -14 -15 -15 -16 -16 -16 -16 -16 -16 -16 -15 -15 -15 -15 -15 -15 -15 -15 -15 -15 -15 -15 -15 -15 -15 -16 -16 -16 -16 -16 -17
-14 -14 -14 -13 -13 -12 -12 -12 -13 -13 -13 -13 -12 -12 -12 -12 -12 -12 -12 -12 -12 -12 -12 -12 -13 -13 -13 -13 -13 -13 -13 -12 -12 -12 -12 -12 -12 -13 -13 -13 -14 -15 -15 -15 -15 -16 -16 -16 -16 -16 -16 -16 -16 -16 -16 -15 -15 -15 -15 -15 -15 -15 -15 -15 -15 -15 -15 -15 -15 -16 -16 -16 -16 -17
-14 -14 -14 -14 -14 -13 -12 -12 -13 -14 -14 -13 -13 -13 -13 -13 -12 -12 -12 -13 -13 -13 -13 -13 -13 -13 -13 -13 -13 -13 -13 -13 -12 -13 -13 -12 -13 -13 -13 -13 -15 -15 -15 -16 -16 -16 -17 -17 -16 -16 -16 -15 -16 -15 -15 -15 -15 -15 -15 -15 -15 -15 -15 -16 -16 -16 -16 -15 -15 -16 -16 -16 -16 -16
-14 -14 -14 -14 -14 -14 -14 -13 -14 -14 -14 -14 -13 -13 -13 -13 -13 -13 -13 -13 -13 -13 -13 -13 -14 -14 -13 -14 -14 -13 -13 -13 -13 -13 -13 -13 -13 -13 -13 -13 -15 -16 -16 -16 -16 -16 -17 -16 -16 -16 -15 -15 -15 -15 -15 -15 -15 -15 -15 -15 -16 -16 -16 -16 -16 -16 -16 -16 -15 -16 -16 -16 -16 -16
-14 -14 -14 -14 -15 -15 -15 -14 -14 -14 -15 -14 -14 -13 -13 -13 -13 -13 -13 -13 -13 -13 -13 -14 -14 -14 -14 -14 -14 -14 -13 -13 -13 -13 -13 -13 -13 -14 -14 -14 -15 -16 -17 -16 -16 -15 -16 -16 -16 -15 -15 -15 -15 -15 -14 -14 -14 -15 -15 -15 -16 -16 -16 -16 -16 -16 -16 -16 -15 -15 -16 -16 -16 -16
-14 -14 -15 -14 -15 -15 -15 -15 -15 -15 -15 -15 -14 -14 -14 -14 -14 -14 -13 -13 -13 -14 -14 -14 -14 -14 -14 -14 -14 -14 -13 -13 -13 -13 -13 -14 -14 -14 -15 -15 -15 -17 -17 -17 -16 -15 -15 -15 -15 -15 -15 -14 -14 -14 -14 -14 -15 -15 -16 -16 -16 -16 -16 -16 -16 -15 -15 -15 -15 -15 -16 -16 -16 -16
-15 -15 -15 -15 -15 -16 -16 -16 -15 -15 -15 -15 -14 -14 -14 -14 -14 -14 -13 -14 -14 -14 -14 -14 -14 -14 -14 -14 -14 -14 -14 -13 -13 -14 -14 -14 -15 -15 -15 -16 -16 -17 -18 -17 -16 -15 -14 -15 -15 -14 -14 -14 -14 -14 -14 -15 -15 -16 -16 -16 -16 -16 -16 -15 -15 -15 -15 -15 -15 -16 -16 -16 -16 -16
-15 -15 -15 -15 -15 -16 -16 -16 -16 -15 -15 -15 -14 -14 -14 -14 -14 -14 -14 -14 -15 -15 -15 -14 -14 -15 -14 -14 -14 -14 -14 -14 -14 -14 -14 -15 -15 -15 -16 -16 -17 -18 -18 -18 -17 -15 -14 -15 -15 -14 -14 -14 -14 -14 -15 -15 -16 -16 -16 -16 -16 -16 -16 -16 -16 -16 -16 -16 -16 -16 -16 -17 -17 -17
-15 -15 -15 -15 -15 -16 -16 -16 -16 -15 -15 -15 -15 -15 -15 -14 -14 -14 -15 -15 -15 -15 -15 -15 -14 -14 -14 -14 -14 -15 -14 -14 -15 -15 -15 -15 -15 -15 -16 -16 -17 -18 -19 -19 -18 -16 -14 -15 -15 -14 -14 -15 -14 -15 -15 -16 -16 -16 -16 -16 -16 -16 -16 -16 -16 -17 -17 -16 -16 -17 -17 -17 -17 -17
-15 -15 -15 -16 -16 -16 -16 -16 -16 -15 -15 -15 -15 -15 -15 -14 -14 -15 -15 -15 -15 -15 -15 -15 -14 -15 -15 -15 -15 -15 -15 -15 -15 -15 -16 -16 -16 -16 -16 -17 -17 -18 -19 -19 -19 -16 -14 -15 -15 -15 -15 -16 -15 -15 -16 -16 -16 -16 -17 -17 -17 -17 -17 -17 -17 -18 -18 -17 -18 -18 -18 -17 -17 -17
-15 -16 -16 -16 -16 -16 -16 -16 -16 -16 -16 -15 -15 -15 -15 -15 -15 -16 -16 -16 -16 -15 -15 -15 -15 -15 -15 -15 -15 -15 -15 -15 -15 -16 -16 -17 -17 -17 -17 -17 -17 -18 -18 -19 -18 -16 -15 -16 -16 -15 -15 -15 -15 -15 -16 -16 -17 -17 -17 -17 -17 -17 -18 -18 -19 -19 -18 -18 -18 -19 -18 -18 -18 -18
-16 -16 -16 -16 -16 -16 -16 -16 -16 -16 -16 -16 -15 -15 -15 -15 -16 -16 -16 -16 -16 -16 -16 -16 -16 -16 -16 -16 -16 -16 -16 -16 -16 -17 -17 -17 -17 -17 -17 -17 -17 -17 -18 -19 -18 -16 -16 -16 -16 -16 -15 -15 -14 -15 -16 -17 -17 -17 -17 -18 -18 -18 -19 -19 -19 -19 -19 -19 -19 -19 -19 -18 -18 -18
-16 -16 -16 -16 -16 -16 -16 -16 -16 -16 -16 -16 -16 -16 -16 -16 -16 -16 -16 -16 -16 -16 -16 -16 -16 -16 -16 -16 -16 -16 -16 -17 -17 -17 -18 -18 -18 -18 -18 -18 -17 -17 -18 -18 -17 -16 -16 -16 -16 -17 -16 -15 -14 -15 -16 -17 -17 -18 -18 -18 -18 -18 -19 -19 -20 -20 -20 -20 -20 -20 -19 -19 -19 -18
-16 -16 -16 -16 -16 -16 -16 -16 -16 -15 -15 -16 -16 -16 -16 -17 -17 -16 -16 -16 -16 -16 -16 -16 -16 -16 -16 -16 -16 -17 -17 -18 -18 -18 -18 -18 -18 -18 -18 -18 -18 -17 -18 -18 -17 -16 -16 -16 -17 -17 -18 -17 -15 -15 -16 -16 -17 -18 -18 -19 -19 -19 -19 -20 -20 -20 -20 -21 -21 -20 -20 -19 -19 -19
-16 -16 -16 -16 -16 -16 -16 -16 -16 -16 -16 -16 -17 -17 -17 -17 -17 -17 -17 -17 -17 -16 -16 -17 -17 -17 -17 -17 -17 -18 -18 -18 -18 -18 -18 -18 -18 -18 -18 -18 -18 -18 -18 -18 -18 -17 -16 -16 -17 -17 -18 -17 -17 -16 -16 -16 -17 -18 -19 -19 -19 -20 -20 -20 -21 -21 -21 -21 -21 -21 -20 -19 -19 -19
-16 -16 -16 -16 -16 -16 -16 -16 -16 -16 -16 -17 -17 -17 -17 -17 -17 -17 -17 -17 -17 -17 -17 -17 -17 -17 -17 -17 -18 -18 -18 -18 -18 -19 -18 -18 -18 -18 -18 -18 -18 -18 -18 -19 -18 -18 -17 -16 -17 -17 -17 -17 -17 -16 -16 -16 -17 -18 -19 -19 -20 -20 -20 -21 -21 -21 -21 -21 -21 -21 -20 -19 -19 -19
-16 -16 -16 -16 -16 -16 -16 -16 -17 -17 -17 -17 -17 -17 -17 -17 -17 -17 -17 -17 -17 -17 -17 -17 -17 -17 -17 -18 -18 -18 -18 -18 -19 -19 -18 -18 -18 -18 -19 -19 -19 -18 -18 -18 -19 -18 -17 -17 -17 -17 -17 -17 -16 -16 -16 -16 -17 -18 -19 -19 -20 -20 -20 -20 -20 -20 -21 -21 -20 -20 -20 -19 -19 -19
-16 -16 -16 -16 -16 -16 -16 -17 -17 -17 -17 -18 -17 -17 -17 -17 -17 -17 -17 -17 -17 -18 -17 -17 -17 -17 -17 -18 -18 -18 -18 -18 -18 -19 -19 -18 -19 -19 -19 -19 -19 -19 -19 -19 -19 -19 -18 -17 -17 -17 -17 -17 -17 -16 -17 -16 -17 -18 -19 -19 -19 -20 -20 -20 -20 -20 -20 -20 -19 -19 -19 -19 -19 -18
-16 -16 -16 -16 -16 -17 -17 -17 -17 -17 -18 -18 -17 -17 -17 -17 -17 -17 -17 -18 -18 -17 -17 -17 -17 -17 -18 -18 -18 -18 -18 -18 -18 -18 -19 -19 -19 -19 -19 -19 -20 -20 -19 -19 -19 -19 -18 -17 -17 -17 -17 -18 -17 -17 -17 -17 -17 -18 -19 -19 -19 -19 -20 -20 -20 -19 -19 -19 -19 -19 -19 -18 -18 -18
-16 -16 -16 -16 -17 -17 -17 -17 -17 -18 -18 -18 -18 -17 -17 -17 -18 -18 -18 -18 -18 -17 -17 -17 -17 -18 -18 -18 -18 -18 -18 -18 -18 -18 -19 -19 -19 -19 -19 -19 -20 -20 -20 -20 -19 -19 -19 -18 -17 -17 -18 -18 -18 -18 -18 -17 -17 -18 -19 -19 -19 -20 -20 -20 -20 -19 -19 -19 -19 -18 -18 -18 -18 -18
-16 -16 -16 -16 -17 -17 -17 -17 -18 -18 -18 -18 -18 -18 -18 -18 -18 -18 -18 -18 -17 -17 -17 -17 -18 -18 -18 -18 -18 -18 -18 -18 -18 -18 -19 -19 -19 -19 -19 -19 -19 -20 -20 -20 -20 -19 -19 -18 -17 -17 -17 -17 -17 -17 -17 -18 -18 -18 -18 -19 -20 -20 -19 -20 -20 -19 -19 -19 -18 -18 -18 -18 -18 -17
-15 -16 -16 -17 -17 -17 -18 -18 -18 -18 -18 -18 -18 -18 -18 -18 -18 -18 -18 -18 -17 -18 -18 -18 -18 -18 -18 -18 -18 -18 -18 -18 -18 -19 -19 -19 -19 -19 -19 -19 -19 -19 -20 -20 -20 -19 -19 -19 -18 -17 -17 -17 -17 -17 -17 -18 -18 -18 -18 -18 -19 -19 -19 -19 -19 -19 -19 -18 -18 -18 -18 -17 -17 -16
-16 -16 -17 -17 -18 -18 -17 -18 -18 -18 -18 -18 -18 -18 -18 -18 -18 -18 -18 -18 -18 -18 -18 -18 -18 -18 -18 -18 -18 -18 -18 -18 -19 -19 -19 -19 -19 -19 -19 -19 -19 -19 -19 -19 -19 -19 -19 -19 -19 -18 -17 -17 -17 -17 -17 -18 -18 -19 -18 -18 -18 -19 -19 -19 -19 -19 -18 -18 -18 -17 -17 -16 -16 -15
-16 -17 -18 -18 -18 -18 -18 -18 -18 -18 -18 -18 -18 -18 -18 -18 -18 -18 -18 -18 -18 -18 -18 -18 -18 -18 -18 -18 -18 -19 -19 -19 -19 -19 -19 -19 -19 -19 -19 -19 -19 -19 -19 -19 -19 -19 -19 -19 -19 -19 -19 -18 -18 -18 -18 -18 -18 -18 -18 -18 -18 -19 -19 -19 -19 -18 -18 -17 -17 -17 -16 -16 -15 -15
-17 -17 -18 -18 -17 -18 -18 -18 -18 -18 -18 -18 -18 -18 -18 -18 -18 -18 -18 -18 -18 -18 -18 -19 -18 -18 -18 -18 -18 -19 -19 -19 -19 -19 -19 -19 -19 -19 -19 -19 -19 -19 -19 -19 -19 -19 -19 -18 -18 -18 -19 -19 -18 -18 -18 -18 -18 -18 -18 -18 -18 -18 -18 -18 -18 -18 -18 -17 -16 -16 -15 -15 -15 -14
-17 -17 -17 -18 -18 -18 -18 -18 -18 -18 -18 -18 -18 -18 -18 -18 -18 -18 -18 -18 -18 -18 -19 -19 -18 -18 -18 -18 -19 -19 -19 -19 -19 -19 -19 -19 -19 -19 -19 -19 -19 -19 -19 -19 -19 -19 -19 -19 -18 -18 -18 -18 -18 -18 -18 -18 -18 -17 -18 -18 -18 -18 -18 -18 -17 -17 -17 -16 -16 -15 -15 -15 -14 -14
-17 -17 -17 -18 -18 -18 -18 -18 -18 -18 -18 -19 -19 -18 -18 -19 -19 -19 -19 -18 -18 -19 -19 -19 -18 -18 -19 -19 -19 -19 -19 -19 -19 -19 -19 -19 -19 -19 -19 -19 -19 -19 -19 -19 -19 -19 -19 -19 -18 -18 -17 -17 -17 -18 -18 -18 -18 -17 -17 -17 -17 -17 -17 -17 -17 -17 -17 -16 -16 -15 -15 -15 -14 -14
-17 -17 -17 -18 -18 -18 -18 -18 -18 -19 -19 -19 -19 -19 -19 -19 -19 -19 -19 -19 -19 -19 -19 -19 -19 -19 -19 -19 -19 -19 -19 -19 -19 -19 -19 -19 -19 -19 -19 -19 -19 -19 -19 -20 -20 -19 -19 -19 -19 -18 -17 -17 -17 -17 -17 -17 -17 -17 -16 -17 -17 -17 -17 -16 -16 -16 -16 -16 -15 -15 -14 -14 -14 -13
-17 -17 -18 -18 -18 -18 -18 -18 -19 -19 -19 -19 -19 -19 -19 -19 -19 -19 -19 -19 -19 -19 -19 -19 -19 -19 -19 -19 -19 -19 -19 -19 -19 -19 -19 -19 -19 -19 -19 -19 -19 -19 -19 -19 -20 -19 -19 -19 -19 -18 -18 -18 -17 -17 -18 -18 -18 -17 -16 -16 -16 -16 -16 -16 -16 -15 -15 -15 -15 -15 -14 -14 -14 -13
-17 -17 -17 -18 -18 -18 -18 -19 -19 -19 -19 -19 -19 -19 -19 -19 -19 -19 -19 -19 -19 -19 -19 -19 -20 -20 -19 -19 -19 -19 -19 -19 -19 -19 -19 -19 -19 -19 -19 -19 -19 -19 -19 -19 -19 -19 -19 -19 -19 -19 -19 -18 -18 -19 -19 -19 -18 -17 -17 -16 -16 -16 -16 -15 -15 -15 -15 -15 -15 -15 -15 -14 -14 -13
-17 -17 -18 -18 -18 -18 -19 -19 -19 -19 -19 -19 -19 -19 -19 -19 -19 -19 -20 -20 -20 -20 -20 -20 -20 -20 -20 -20 -20 -20 -20 -20 -19 -19 -19 -19 -19 -19 -19 -19 -19 -20 -20 -20 -19 -19 -19 -19 -19 -19 -19 -19 -19 -19 -19 -18 -17 -17 -17 -16 -15 -15 -15 -15 -15 -15 -15 -15 -15 -15 -15 -14 -14 -13
-18 -18 -18 -18 -18 -18 -19 -19 -19 -19 -19 -20 -20 -20 -20 -20 -20 -20 -20 -20 -20 -20 -20 -20 -20 -20 -20 -20 -20 -20 -20 -20 -20 -20 -20 -19 -20 -20 -20 -19 -19 -19 -20 -20 -20 -20 -20 -20 -20 -20 -20 -19 -19 -19 -18 -17 -17 -17 -17 -16 -16 -15 -15 -15 -15 -15 -15 -15 -15 -15 -14 -14 -14 -14
-18 -18 -18 -18 -19 -19 -19 -19 -19 -19 -19 -20 -20 -20 -20 -20 -20 -20 -20 -20 -20 -20 -20 -20 -20 -20 -20 -20 -20 -20 -20 -20 -20 -20 -20 -20 -20 -20 -20 -20 -19 -19 -20 -20 -20 -20 -20 -20 -20 -20 -20 -20 -19 -19 -18 -18 -17 -17 -17 -16 -16 -16 -15 -15 -15 -15 -16 -15 -15 -15 -14 -14 -14 -14
-18 -18 -18 -18 -19 -19 -19 -19 -19 -19 -20 -20 -20 -20 -20 -20 -20 -20 -20 -20 -20 -20 -20 -21 -21 -21 -21 -21 -21 -21 -21 -20 -20 -20 -20 -20 -20 -20 -20 -20 -20 -20 -20 -20 -20 -20 -20 -20 -20 -20 -20 -20 -19 -19 -18 -18 -17 -17 -17 -17 -16 -16 -16 -15 -15 -16 -16 -16 -15 -15 -14 -14 -14 -14
-18 -18 -18 -18 -18 -19 -19 -19 -19 -20 -20 -20 -20 -20 -20 -20 -20 -20 -21 -21 -21 -21 -21 -21 -21 -21 -21 -21 -21 -21 -21 -21 -21 -21 -20 -20 -20 -20 -20 -20 -20 -20 -20 -20 -20 -20 -20 -20 -20 -20 -20 -20 -20 -20 -19 -18 -18 -17 -17 -17 -17 -16 -16 -16 -16 -16 -15 -15 -15 -15 -14 -14 -14 -14
Height
2889 2889 2890 2890 2892 2894 2894 2895 2897 2898 2899 2900 2901 2902 2903 2903 2903 2903 2904 2906 2909 2911 2912 2913 2914 2914 2913 2911 2909 2908 2908 2907 2906 2905 2903 2902 2901 2900 2899 2898 2897 2896 2895 2893 2892 2891 2890 2888 2887 2885 2884 2883 2883 2882 2882 2882 2882 2882 2882 2882 2881 2880 2880 2880 2879 2878 2879 2879 2878 2878 2878 2878 2879 2879
2882 2882 2882 2883 2885 2886 2887 2888 2890 2891 2892 2893 2894 2895 2896 2897 2897 2897 2898 2899 2901 2903 2905 2906 2907 2907 2906 2905 2904 2903 2902 2901 2900 2898 2896 2895 2894 2893 2892 2891 2890 2889 2887 2886 2884 2883 2881 2880 2878 2877 2876 2875 2875 2875 2875 2875 2875 2874 2874 2874 2873 2872 2871 2871 2870 2870 2870 2870 2869 2868 2869 2869 2869 2870
2874 2875 2876 2876 2878 2879 2880 2881 2883 2884 2885 2885 2887 2888 2889 2890 2891 2892 2891 2891 2893 2895 2897 2899 2899 2899 2899 2899 2899 2898 2896 2895 2893 2892 2891 2889 2888 2886 2885 2884 2882 2881 2880 2879 2877 2875 2873 2872 2870 2869 2868 2867 2867 2867 2867 2868 2867 2866 2866 2866 2865 2864 2863 2862 2862 2861 2860 2861 2861 2860 2860 2860 2860 2861
2866 2867 2868 2869 2871 2872 2873 2874 2876 2877 2878 2878 2879 2881 2882 2884 2885 2885 2885 2885 2886 2888 2889 2890 2891 2892 2892 2892 2891 2891 2890 2889 2887 2886 2885 2884 2881 2879 2877 2876 2875 2873 2872 2871 2869 2867 2865 2864 2862 2860 2859 2859 2859 2860 2860 2860 2859 2859 2858 2857 2857 2856 2855 2854 2853 2852 2852 2852 2852 2852 2852 2852 2852 2853
2858 2859 2861 2862 2864 2865 2866 2867 2868 2870 2871 2872 2872 2873 2875 2877 2878 2879 2879 2880 2880 2880 2881 2882 2883 2884 2884 2884 2884 2884 2883 2882 2881 2880 2879 2877 2875 2872 2870 2869 2868 2866 2864 2863 2860 2859 2857 2856 2854 2852 2850 2850 2851 2852 2852 2851 2851 2850 2849 2849 2848 2848 2848 2846 2844 2843 2843 2843 2843 2843 2843 2844 2845 2845
2850 2851 2852 2855 2857 2858 2858 2859 2861 2862 2864 2865 2866 2867 2869 2870 2872 2873 2873 2874 2873 2873 2874 2875 2876 2877 2877 2877 2877 2876 2875 2874 2874 2874 2873 2871 2868 2865 2863 2862 2860 2859 2857 2855 2852 2850 2849 2847 2845 2843 2842 2842 2843 2844 2843 2843 2842 2841 2841 2840 2839 2839 2838 2837 2835 2834 2834 2833 2834 2834 2834 2834 2836 2836
2842 2842 2844 2847 2848 2849 2851 2853 2854 2855 2857 2858 2859 2861 2863 2864 2866 2867 2868 2868 2867 2867 2867 2868 2869 2870 2871 2871 2870 2869 2868 2867 2866 2867 2866 2864 2861 2858 2856 2854 2853 2852 2850 2847 2845 2843 2841 2839 2837 2835 2834 2834 2835 2836 2835 2834 2833 2833 2832 2831 2830 2829 2828 2828 2826 2825 2824 2824 2824 2824 2824 2825 2826 2827
2833 2835 2836 2839 2840 2841 2843 2845 2847 2848 2849 2851 2853 2854 2856 2858 2859 2861 2862 2862 2861 2861 2860 2861 2863 2865 2865 2864 2864 2863 2861 2860 2859 2859 2858 2856 2853 2852 2849 2847 2845 2844 2842 2840 2837 2835 2833 2831 2828 2826 2826 2827 2827 2827 2827 2826 2825 2824 2823 2822 2821 2820 2818 2817 2816 2815 2815 2814 2814 2815 2815 2815 2816 2817
2826 2827 2829 2831 2832 2834 2836 2838 2839 2841 2843 2844 2846 2848 2850 2852 2853 2854 2855 2856 2855 2855 2854 2855 2857 2858 2859 2858 2857 2856 2855 2854 2853 2852 2851 2848 2846 2845 2843 2840 2838 2836 2834 2832 2830 2828 2825 2822 2820 2819 2818 2819 2819 2819 2818 2818 2816 2815 2814 2813 2811 2810 2809 2807 2806 2805 2805 2805 2804 2804 2805 2805 2806 2806
2819 2820 2821 2823 2824 2826 2829 2831 2832 2834 2836 2838 2840 2842 2844 2845 2847 2848 2849 2849 2849 2849 2849 2849 2850 2852 2853 2852 2851 2850 2849 2847 2846 2845 2843 2841 2839 2838 2836 2833 2830 2828 2826 2824 2822 2820 2817 2815 2813 2812 2811 2811 2811 2811 2810 2809 2808 2807 2805 2803 2801 2800 2799 2797 2796 2796 2796 2795 2795 2794 2794 2795 2796 2796
2812 2813 2814 2815 2816 2819 2822 2824 2826 2828 2830 2832 2834 2836 2837 2839 2840 2841 2842 2843 2843 2844 2844 2844 2844 2845 2846 2846 2846 2845 2843 2840 2839 2837 2835 2834 2833 2831 2829 2825 2823 2821 2819 2817 2814 2812 2809 2807 2805 2805 2804 2804 2803 2802 2802 2801 2800 2798 2795 2793 2792 2790 2788 2788 2787 2786 2786 2786 2785 2784 2784 2784 2785 2787
2805 2807 2808 2808 2809 2812 2815 2818 2819 2821 2824 2827 2828 2829 2831 2832 2833 2835 2836 2837 2838 2838 2838 2838 2839 2839 2840 2840 2840 2839 2836 2834 2832 2830 2828 2827 2826 2824 2822 2819 2816 2813 2811 2809 2807 2804 2802 2800 2798 2797 2797 2796 2796 2795 2794 2793 2791 2788 2786 2784 2782 2780 2779 2778 2777 2776 2775 2775 2775 2775 2774 2774 2775 2777
2799 2800 2801 2802 2803 2805 2808 2811 2813 2815 2818 2820 2822 2823 2825 2826 2827 2829 2830 2831 2832 2833 2833 2833 2834 2834 2834 2835 2835 2833 2830 2828 2826 2824 2823 2821 2819 2817 2815 2813 2810 2806 2804 2801 2799 2797 2795 2792 2791 2790 2789 2789 2789 2788 2787 2784 2782 2780 2777 2774 2772 2770 2769 2768 2767 2766 2765 2764 2764 2765 2765 2765 2765 2766
2793 2794 2795 2796 2797 2799 2801 2804 2807 2809 2812 2814 2815 2817 2819 2821 2822 2823 2824 2826 2827 2827 2828 2828 2828 2828 2829 2830 2828 2826 2825 2822 2820 2819 2817 2815 2813 2809 2807 2807 2805 2802 2797 2793 2791 2790 2788 2785 2783 2782 2782 2783 2781 2780 2778 2775 2772 2770 2768 2765 2763 2761 2759 2757 2756 2755 2753 2752 2753 2753 2755 2755 2755 2757
2787 2788 2789 2790 2791 2793 2795 2797 2800 2803 2805 2807 2809 2812 2814 2815 2816 2818 2819 2821 2821 2822 2822 2823 2823 2823 2824 2824 2822 2821 2819 2817 2815 2814 2811 2809 2806 2803 2800 2799 2799 2796 2791 2785 2782 2782 2781 2778 2777 2776 2775 2775 2773 2771 2768 2765 2762 2760 2757 2754 2752 2749 2747 2745 2744 2743 2742 2741 2741 2742 2744 2745 2745 2747
2780 2782 2783 2784 2786 2787 2789 2792 2794 2797 2799 2802 2804 2807 2808 2809 2811 2813 2814 2815 2816 2817 2817 2818 2819 2819 2818 2818 2817 2816 2814 2812 2810 2808 2806 2802 2799 2797 2794 2793 2792 2789 2784 2778 2774 2775 2775 2772 2770 2769 2769 2767 2765 2762 2759 2755 2751 2748 2745 2742 2740 2737 2735 2734 2733 2732 2731 2731 2731 2731 2732 2734 2735 2737
2774 2776 2777 2779 2781 2782 2784 2787 2789 2791 2794 2797 2799 2801 2803 2804 2806 2808 2809 2810 2811 2812 2812 2813 2814 2814 2813 2812 2812 2810 2808 2806 2804 2802 2800 2797 2794 2792 2790 2787 2786 2783 2777 2771 2767 2767 2770 2767 2761 2761 2761 2759 2756 2753 2749 2744 2741 2737 2734 2731 2728 2726 2724 2723 2722 2721 2721 2720 2720 2720 2721 2723 2724 2726
2769 2771 2772 2774 2776 2778 2781 2782 2784 2787 2789 2792 2794 2795 2797 2799 2801 2803 2804 2805 2806 2807 2807 2809 2809 2809 2808 2807 2806 2805 2802 2800 2798 2795 2794 2793 2789 2787 2784 2782 2780 2777 2772 2767 2760 2760 2763 2760 2754 2753 2754 2750 2747 2743 2739 2735 2730 2727 2724 2720 2717 2715 2713 2711 2711 2711 2710 2710 2709 2710 2711 2713 2715 2716
2764 2766 2768 2770 2772 2774 2776 2778 2780 2782 2785 2786 2788 2790 2793 2795 2797 2798 2799 2800 2801 2802 2803 2804 2804 2804 2803 2802 2801 2799 2797 2794 2792 2791 2789 2787 2783 2780 2778 2776 2774 2771 2768 2764 2756 2754 2756 2753 2747 2746 2746 2742 2738 2734 2730 2726 2721 2717 2713 2710 2707 2704 2702 2700 2699 2699 2698 2698 2698 2699 2701 2703 2705 2706
2760 2762 2764 2766 2768 2770 2772 2774 2776 2778 2779 2781 2783 2786 2788 2790 2792 2794 2795 2796 2796 2798 2799 2799 2799 2799 2798 2797 2796 2794 2791 2789 2788 2786 2784 2781 2776 2773 2771 2771 2769 2767 2765 2761 2753 2748 2749 2747 2741 2740 2739 2734 2729 2726 2722 2718 2713 2707 2703 2699 2696 2693 2690 2687 2686 2686 2686 2687 2687 2689 2691 2693 2696 2697
2756 2758 2760 2762 2763 2766 2769 2771 2772 2773 2775 2776 2779 2781 2783 2785 2788 2789 2791 2792 2793 2794 2795 2795 2795 2794 2794 2793 2791 2788 2786 2784 2782 2781 2778 2776 2772 2769 2767 2765 2764 2762 2760 2756 2749 2744 2743 2741 2735 2733 2731 2726 2720 2718 2714 2709 2703 2698 2693 2689 2686 2682 2678 2675 2674 2674 2675 2676 2677 2679 2681 2684 2687 2689
2752 2754 2756 2758 2760 2763 2765 2767 2767 2769 2770 2772 2775 2777 2780 2782 2784 2785 2787 2788 2790 2790 2791 2791 2791 2790 2789 2788 2786 2783 2782 2780 2778 2775 2773 2771 2768 2766 2762 2759 2756 2755 2754 2750 2744 2739 2737 2735 2729 2725 2722 2717 2713 2709 2705 2699 2694 2689 2684 2680 2676 2671 2667 2664 2663 2664 2665 2666 2668 2669 2671 2675 2678 2680
2749 2751 2753 2755 2757 2759 2761 2762 2763 2765 2767 2769 2771 2774 2776 2779 2780 2782 2783 2785 2786 2787 2787 2787 2787 2786 2784 2783 2781 2779 2778 2776 2774 2771 2769 2767 2764 2761 2758 2754 2749 2747 2746 2742 2737 2733 2730 2727 2723 2717 2711 2708 2705 2702 2697 2691 2687 2682 2676 2671 2667 2663 2657 2654 2653 2654 2655 2656 2658 2659 2662 2665 2669 2671
2746 2748 2750 2752 2754 2756 2757 2758 2760 2761 2764 2766 2769 2771 2773 2775 2777 2779 2780 2782 2782 2783 2784 2784 2783 2782 2780 2778 2777 2775 2774 2772 2770 2768 2765 2762 2759 2756 2753 2750 2745 2743 2740 2736 2731 2728 2724 2721 2717 2711 2704 2698 2695 2694 2691 2686 2680 2675 2669 2663 2658 2655 2649 2645 2644 2644 2645 2646 2647 2649 2652 2656 2659 2662
2743 2745 2747 2749 2751 2752 2753 2755 2757 2759 2761 2764 2766 2768 2770 2772 2774 2776 2777 2778 2779 2780 2780 2780 2779 2777 2776 2775 2774 2772 2771 2769 2767 2764 2761 2758 2756 2752 2749 2746 2742 2739 2736 2732 2726 2722 2718 2714 2710 2705 2699 2693 2687 2685 2684 2681 2675 2668 2661 2656 2651 2647 2643 2638 2636 2636 2635 2636 2637 2638 2642 2646 2650 2654
2741 2743 2744 2746 2747 2749 2751 2752 2754 2756 2759 2762 2764 2766 2767 2769 2771 2773 2774 2776 2777 2777 2777 2776 2775 2774 2773 2772 2771 2769 2768 2766 2764 2761 2758 2755 2753 2749 2746 2742 2737 2733 2730 2727 2721 2716 2712 2709 2705 2700 2695 2688 2682 2678 2675 2673 2670 2663 2657 2650 2645 2640 2637 2633 2630 2629 2628 2628 2629 2631 2634 2639 2643 2648
2739 2741 2742 2743 2745 2746 2748 2750 2752 2755 2757 2759 2761 2763 2765 2767 2769 2770 2772 2773 2774 2774 2773 2773 2772 2771 2770 2769 2768 2767 2765 2763 2761 2758 2756 2753 2750 2747 2743 2739 2734 2729 2725 2721 2717 2712 2708 2705 2701 2696 2690 2683 2678 2673 2668 2665 2662 2658 2652 2646 2641 2636 2632 2628 2625 2623 2623 2623 2624 2626 2629 2633 2637 2642
2737 2739 2740 2741 2743 2745 2746 2748 2750 2753 2755 2757 2759 2761 2763 2764 2766 2768 2770 2770 2771 2770 2770 2770 2769 2768 2768 2767 2766 2764 2763 2760 2758 2756 2753 2750 2747 2744 2740 2737 2732 2727 2722 2718 2714 2709 2704 2700 2696 2691 2685 2679 2673 2669 2665 2660 2655 2651 2645 2641 2637 2634 2629 2625 2622 2621 2620 2620 2622 2624 2626 2630 2634 2639
2735 2736 2737 2739 2741 2743 2744 2746 2748 2751 2753 2755 2757 2759 2761 2762 2764 2766 2767 2768 2768 2767 2767 2767 2766 2765 2765 2764 2763 2761 2759 2757 2756 2754 2751 2747 2744 2741 2738 2735 2731 2725 2720 2716 2711 2706 2700 2696 2691 2686 2682 2677 2670 2665 2661 2656 2651 2646 2641 2635 2633 2631 2627 2623 2620 2619 2618 2619 2620 2622 2624 2628 2632 2637
2733 2734 2735 2737 2739 2741 2743 2745 2747 2749 2751 2753 2755 2757 2759 2761 2762 2764 2764 2764 2764 2764 2764 2764 2763 2762 2762 2761 2759 2757 2756 2754 2752 2750 2748 2745 2742 2739 2736 2733 2730 2725 2719 2713 2709 2703 2697 2692 2688 2683 2679 2675 2669 2663 2658 2652 2647 2643 2639 2633 2628 2626 2624 2621 2618 2617 2617 2617 2618 2620 2623 2627 2631 2635
2730 2731 2733 2735 2737 2739 2741 2743 2746 2747 2749 2752 2754 2756 2757 2759 2760 2761 2761 2761 2761 2762 2762 2761 2760 2760 2759 2758 2756 2754 2753 2751 2748 2746 2744 2741 2739 2736 2733 2730 2727 2724 2719 2714 2708 2702 2696 2689 2685 2681 2676 2672 2666 2661 2656 2650 2644 2640 2636 2632 2626 2623 2621 2618 2616 2616 2615 2616 2617 2619 2622 2626 2630 2634
2729 2730 2732 2734 2736 2738 2740 2742 2744 2746 2748 2750 2752 2754 2756 2757 2758 2758 2759 2759 2759 2759 2759 2758 2758 2757 2756 2755 2753 2751 2750 2748 2745 2743 2740 2738 2735 2732 2729 2725 2722 2720 2717 2714 2709 2703 2697 2689 2682 2677 2673 2669 2664 2659 2654 2649 2644 2639 2635 2632 2628 2623 2620 2617 2616 2615 2615 2615 2617 2619 2623 2627 2631 2634
2728 2730 2732 2734 2735 2737 2739 2741 2743 2745 2747 2749 2751 2753 2754 2755 2756 2756 2756 2756 2757 2756 2756 2756 2755 2755 2753 2752 2750 2749 2747 2745 2743 2740 2737 2734 2732 2729 2726 2722 2719 2715 2712 2709 2705 2702 2697 2691 2683 2675 2669 2666 2662 2657 2653 2649 2644 2640 2635 2632 2629 2626 2622 2619 2617 2616 2615 2616 2618 2620 2624 2627 2631 2635
2728 2730 2731 2733 2734 2736 2738 2740 2742 2744 2746 2748 2749 2751 2752 2753 2753 2754 2754 2754 2754 2754 2753 2753 2753 2752 2751 2749 2748 2746 2745 2742 2740 2737 2735 2732 2729 2726 2723 2720 2717 2713 2709 2705 2701 2697 2694 2691 2685 2678 2671 2665 2661 2657 2653 2649 2645 2641 2637 2633 2630 2627 2623 2620 2619 2618 2617 2618 2620 2622 2625 2629 2632 2636
2727 2729 2730 2732 2734 2736 2737 2739 2741 2743 2745 2747 2748 2749 2750 2751 2751 2751 2752 2752 2752 2751 2751 2751 2750 2749 2748 2746 2745 2744 2742 2740 2738 2735 2732 2730 2727 2723 2720 2717 2714 2710 2706 2702 2698 2694 2690 2686 2683 2679 2674 2668 2663 2658 2654 2650 2646 2642 2639 2636 2632 2628 2625 2622 2621 2621 2620 2621 2623 2625 2628 2631 2635 2638
2727 2728 2730 2731 2733 2735 2737 2739 2741 2742 2744 2745 2746 2747 2748 2749 2749 2749 2749 2750 2749 2749 2749 2749 2748 2746 2745 2744 2743 2741 2739 2737 2735 2733 2730 2728 2725 2722 2719 2715 2712 2708 2704 2700 2696 2692 2687 2683 2680 2677 2673 2669 2665 2661 2656 2651 2647 2644 2642 2638 2634 2631 2629 2626 2624 2624 2624 2625 2627 2629 2631 2634 2638 2641
2726 2727 2729 2731 2733 2734 2736 2738 2740 2741 2742 2744 2745 2746 2746 2747 2747 2747 2747 2747 2747 2747 2747 2746 2745 2743 2742 2741 2740 2738 2736 2734 2732 2730 2728 2725 2723 2720 2718 2714 2711 2707 2703 2699 2695 2691 2687 2682 2678 2675 2671 2668 2665 2662 2658 2653 2649 2646 2643 2640 2637 2635 2633 2631 2629 2628 2628 2630 2631 2632 2635 2637 2640 2643
2725 2727 2729 2730 2732 2733 2735 2737 2738 2740 2741 2742 2743 2744 2745 2745 2745 2745 2745 2745 2745 2745 2745 2744 2742 2741 2740 2739 2738 2736 2734 2732 2729 2727 2725 2723 2721 2718 2715 2713 2709 2706 2702 2698 2694 2690 2686 2682 2678 2674 2670 2666 2663 2659 2657 2654 2651 2648 2645 2642 2640 2638 2637 2636 2634 2633 2633 2634 2635 2636 2638 2640 2642 2644
2725 2727 2728 2730 2731 2733 2735 2736 2737 2738 2740 2741 2742 2743 2743 2743 2744 2744 2744 2743 2743 2743 2742 2741 2740 2739 2738 2737 2735 2734 2732 2730 2728 2725 2723 2721 2719 2716 2713 2710 2707 2704 2701 2698 2694 2690 2686 2683 2679 2674 2670 2666 2662 2658 2655 2653 2651 2649 2646 2644 2642 2641 2640 2639 2638 2638 2638 2638 2639 2640 2641 2642 2643 2645
2725 2726 2728 2729 2731 2732 2734 2735 2736 2737 2738 2739 2740 2741 2741 2742 2742 2742 2742 2742 2741 2741 2740 2739 2738 2737 2736 2734 2733 2731 2729 2727 2725 2723 2721 2718 2716 2714 2711 2708 2705 2702 2699 2696 2693 2689 2685 2681 2677 2674 2670 2666 2663 2660 2658 2656 2654 2651 2648 2646 2644 2643 2643 2642 2641 2641 2641 2642 2642 2643 2644 2644 2645 2646
2725 2726 2727 2729 2730 2731 2732 2733 2735 2736 2737 2738 2739 2740 2740 2740 2740 2740 2740 2740 2740 2739 2738 2737 2736 2735 2734 2732 2731 2729 2727 2725 2723 2721 2719 2716 2714 2711 2709 2707 2704 2701 2698 2695 2691 2688 2684 2680 2676 2673 2671 2668 2666 2664 2662 2660 2657 2654 2650 2648 2646 2645 2644 2644 2643 2644 2644 2644 2645 2645 2646 2646 2647 2648
2724 2725 2727 2728 2729 2730 2731 2732 2733 2735 2736 2737 2737 2738 2738 2738 2738 2738 2738 2738 2738 2737 2736 2735 2734 2733 2731 2730 2728 2727 2725 2723 2721 2719 2717 2715 2713 2710 2707 2705 2703 2700 2697 2693 2689 2686 2683 2680 2677 2674 2672 2670 2667 2665 2662 2659 2657 2654 2651 2649 2647 2646 2645 2645 2645 2645 2645 2646 2646 2647 2647 2648 2649 2650
2723 2725 2726 2727 2728 2729 2730 2731 2732 2733 2734 2735 2736 2736 2736 2736 2736 2736 2736 2736 2735 2735 2734 2733 2732 2731 2729 2728 2726 2725 2723 2721 2719 2717 2715 2713 2711 2708 2706 2703 2701 2698 2695 2692 2689 2686 2683 2680 2678 2675 2672 2669 2667 2665 2662 2659 2657 2655 2653 2651 2649 2648 2647 2646 2646 2646 2646 2646 2647 2648 2649 2649 2650 2651
2723 2724 2725 2725 2726 2728 2729 2730 2731 2732 2733 2733 2734 2734 2734 2734 2734 2734 2734 2734 2733 2733 2732 2731 2730 2729 2727 2726 2724 2722 2720 2718 2716 2714 2712 2710 2708 2706 2704 2701 2698 2696 2694 2692 2689 2686 2683 2680 2678 2675 2672 2669 2666 2664 2662 2660 2658 2655 2654 2652 2651 2649 2648 2647 2647 2647 2647 2647 2648 2649 2650 2651 2652 2653
2722 2722 2723 2724 2725 2726 2728 2729 2730 2731 2731 2732 2732 2732 2732 2732 2732 2732 2732 2732 2731 2731 2730 2729 2728 2726 2725 2723 2721 2720 2718 2716 2714 2712 2710 2708 2706 2703 2701 2699 2696 2694 2692 2690 2688 2686 2683 2681 2678 2675 2672 2669 2666 2663 2661 2659 2658 2656 2655 2654 2652 2651 2649 2649 2648 2648 2648 2649 2649 2650 2651 2652 2653 2654
Wind_Speed
48 48 47 47 46 45 46 49 52 56 57 55 54 52 50 50 50 50 50 48 45 43 42 40 37 36 37 39 41 42 43 43 44 45 47 48 48 49 50 51 51 52 52 52 51 51 51 51 51 50 50 49 49 48 47 46 46 47 47 46 48 49 48 49 52 53 51 52 55 59 62 65 66 68
48 48 49 49 48 47 47 47 49 53 56 56 55 53 50 50 50 51 51 50 48 46 44 41 40 39 38 39 40 41 42 43 44 45 47 47 48 49 50 51 52 52 52 52 52 52 52 51 51 50 50 49 49 48 48 47 47 48 48 47 47 49 50 51 53 54 53 52 53 57 60 65 69 71
49 49 49 50 49 48 48 48 47 50 54 56 56 54 52 50 50 50 51 51 50 48 46 44 43 42 41 41 41 41 42 43 44 45 46 46 47 49 51 51 52 53 52 52 52 52 52 52 51 51 50 49 49 49 48 48 48 49 48 47 47 48 50 52 54 55 54 53 53 55 56 62 68 71
52 50 49 50 50 48 47 48 48 50 54 56 57 55 53 51 50 50 50 51 50 49 48 47 45 44 43 43 43 42 42 43 44 44 45 45 47 49 51 52 52 53 53 52 52 53 53 52 51 51 50 50 49 49 48 48 49 49 49 49 48 48 50 53 55 56 55 54 53 54 53 57 62 66
54 52 50 50 51 49 47 47 48 49 53 56 57 56 54 52 51 50 49 49 50 49 48 47 47 46 45 45 44 42 42 43 43 43 43 44 46 49 51 51 52 52 53 53 53 53 53 52 51 51 50 50 49 49 49 49 50 50 50 51 50 50 50 52 55 56 56 55 54 53 53 54 56 60
54 53 52 50 50 51 50 48 48 49 51 54 57 56 54 52 51 49 48 48 48 49 48 47 47 46 45 45 45 43 43 44 43 42 42 43 46 48 50 51 52 52 52 52 53 53 53 52 51 51 51 51 50 49 50 50 51 52 52 53 53 53 53 53 55 55 55 56 55 53 54 54 53 56
53 52 52 51 51 51 50 49 49 49 50 53 56 56 55 53 51 49 47 47 47 48 47 46 45 44 44 44 44 43 43 44 44 42 41 43 46 48 50 51 52 51 51 52 53 53 53 52 51 51 51 52 51 50 51 52 53 54 55 55 55 56 56 55 55 54 54 55 55 54 54 54 54 55
51 52 52 52 52 51 50 50 50 49 50 52 54 56 55 54 53 50 48 47 47 47 47 46 44 42 42 43 43 42 43 43 43 42 41 43 45 47 49 51 51 51 50 51 52 52 51 51 52 51 51 52 52 52 52 54 55 56 56 57 58 58 58 57 55 53 52 53 55 55 55 55 54 55
48 50 51 51 51 51 50 50 50 49 49 50 52 54 54 53 53 51 50 49 47 47 47 46 43 41 41 41 41 41 41 42 42 41 41 44 46 47 48 50 51 50 50 50 50 50 50 50 52 52 51 52 52 53 54 55 56 57 58 59 60 59 59 57 54 50 49 50 53 55 56 56 55 56
44 46 49 49 49 51 50 49 49 49 48 49 50 52 53 52 52 52 51 49 48 47 47 45 43 41 40 40 40 39 39 41 42 42 42 44 45 45 47 49 49 49 49 50 49 48 48 49 50 51 51 51 53 54 55 56 56 58 60 61 61 61 60 57 53 50 49 48 50 53 56 57 56 56
41 42 45 48 48 48 49 48 48 48 47 47 49 50 51 51 51 51 51 49 48 47 46 44 43 41 39 39 38 37 38 40 41 42 44 45 44 44 45 47 48 47 47 48 48 47 47 48 49 49 49 50 52 54 54 55 56 59 61 61 62 62 60 57 53 52 52 51 50 51 54 57 58 56
38 40 43 46 46 46 46 46 47 47 45 45 47 48 49 50 50 50 49 48 47 46 44 43 41 40 39 36 35 35 37 39 40 42 43 45 44 44 44 45 45 45 46 46 46 46 47 48 47 47 48 49 52 53 54 55 57 59 61 61 62 61 59 55 52 51 54 55 53 52 52 55 58 57
35 37 40 43 44 43 43 43 44 44 43 44 46 47 47 48 48 48 48 47 46 44 43 42 40 39 37 35 34 35 36 38 40 41 42 43 43 44 44 43 41 42 44 45 45 45 45 46 46 46 48 49 51 52 53 55 57 58 59 60 60 59 57 56 54 54 55 57 57 55 53 54 57 58
34 34 38 42 43 41 40 40 41 41 41 43 45 46 45 46 46 47 46 45 43 42 41 39 38 37 35 33 33 34 35 38 39 40 41 41 42 43 44 42 39 39 41 43 43 41 41 43 44 45 47 48 49 52 53 55 57 58 57 57 57 57 57 57 57 57 58 60 60 58 56 54 56 57
33 34 37 41 42 40 38 38 38 39 41 42 43 43 43 44 44 44 44 42 41 40 38 36 35 34 33 32 32 33 35 37 38 38 39 39 40 41 42 41 38 36 38 41 42 39 37 39 42 43 44 45 48 51 54 56 58 58 57 56 56 56 57 57 57 57 58 59 60 60 58 57 56 56
33 35 38 41 42 41 37 35 35 38 40 40 40 41 40 41 41 41 41 40 39 37 35 34 33 32 32 32 32 33 35 36 36 36 36 37 39 39 40 39 37 35 36 39 41 39 36 36 39 41 42 45 48 51 54 56 57 57 56 56 57 57 57 57 56 55 54 54 56 59 59 58 57 55
35 36 39 40 40 39 35 33 34 35 37 37 38 39 39 39 39 39 39 38 36 34 33 31 30 30 31 32 31 32 34 34 34 35 34 35 37 38 38 37 35 35 36 38 40 37 33 34 39 41 42 45 49 51 54 56 57 57 57 57 57 57 57 57 56 54 52 52 53 56 58 58 57 55
35 37 39 38 36 35 33 33 34 34 35 36 37 37 36 36 36 36 36 35 32 31 30 29 28 29 30 31 30 30 32 33 33 33 33 34 36 37 37 36 35 35 36 39 41 37 31 34 40 42 42 46 49 52 54 56 57 57 56 56 55 54 54 55 56 55 54 53 53 54 56 56 55 55
34 36 36 34 32 31 32 33 34 34 34 35 35 34 33 33 34 34 33 31 29 28 28 28 28 27 28 29 29 29 30 30 31 32 32 34 36 38 37 37 36 35 34 37 41 38 32 35 42 43 42 45 50 53 54 54 55 55 54 54 53 53 53 54 56 56 54 53 53 53 54 54 54 54
33 34 33 31 30 30 31 33 33 33 33 33 32 31 31 32 32 31 29 28 27 26 26 26 26 26 26 27 27 27 28 29 30 31 31 33 37 38 38 37 35 34 33 34 39 38 34 36 42 43 42 45 50 52 52 52 52 52 51 51 51 53 54 55 56 56 53 52 52 52 53 54 52 52
33 32 30 29 29 29 31 32 32 31 30 29 29 29 30 30 29 27 26 25 24 23 24 24 24 25 25 25 25 26 27 28 29 30 31 33 35 37 38 37 35 33 32 32 36 38 35 37 41 42 42 46 50 51 49 50 49 47 47 48 50 52 55 55 55 55 53 51 51 51 53 54 52 51
32 30 28 27 27 27 29 30 29 28 27 26 26 27 28 27 26 24 23 22 21 22 22 23 24 24 23 23 23 24 25 27 29 30 31 33 35 36 36 38 37 34 31 32 35 36 35 36 39 41 43 46 49 48 47 46 44 43 44 46 47 49 51 52 53 53 53 51 51 52 53 53 52 51
28 27 25 24 24 26 28 29 27 24 23 23 25 26 26 25 23 22 21 20 20 21 21 22 22 21 21 21 21 23 24 26 28 30 31 32 34 35 36 37 38 36 33 34 35 35 36 36 37 41 45 47 46 44 42 40 38 39 44 47 45 46 47 49 49 50 50 49 50 51 52 53 52 51
23 22 21 20 22 25 27 26 23 21 21 23 24 24 23 22 21 19 18 18 19 20 20 20 19 18 19 20 20 22 23 25 27 29 30 32 33 34 35 36 37 36 35 36 37 36 36 37 37 40 45 48 46 41 36 35 35 38 44 47 45 44 43 44 44 44 44 44 45 47 50 52 52 51
19 18 18 19 21 23 23 22 20 20 22 23 24 23 21 20 18 17 16 17 18 19 18 17 16 16 17 18 19 20 22 24 25 27 29 30 32 33 35 35 36 36 36 37 39 38 37 38 39 41 44 46 45 40 33 29 28 34 41 44 43 41 39 39 39 37 36 38 39 42 47 50 50 50
16 16 17 19 21 21 21 20 20 21 22 22 22 21 19 17 16 16 16 17 18 16 15 14 14 14 15 17 18 19 21 22 23 25 27 29 30 31 33 35 36 37 37 39 40 41 39 39 40 41 43 43 41 39 36 30 27 32 37 39 41 41 39 36 34 32 31 32 33 37 42 45 47 48
17 17 18 20 22 22 21 21 22 22 21 21 20 19 17 16 15 15 16 17 15 13 12 12 13 13 14 15 16 18 19 20 21 23 25 27 28 29 31 34 36 37 38 39 41 42 41 40 39 40 41 42 40 39 38 36 34 36 37 36 37 39 37 33 31 28 26 27 28 31 36 41 44 47
19 19 21 23 23 23 22 22 22 21 20 20 19 17 15 15 15 15 16 14 13 11 11 12 12 13 13 14 16 17 18 19 20 22 24 26 27 28 30 32 34 36 38 39 41 42 42 40 39 39 41 41 40 38 38 37 39 40 37 33 32 33 34 31 27 24 22 22 24 28 34 39 42 46
20 22 24 24 23 22 22 22 21 20 19 18 17 15 15 15 15 15 14 13 11 11 11 11 12 12 13 15 16 17 18 20 20 21 23 24 26 27 28 29 31 34 37 38 39 41 42 40 39 39 40 39 38 38 37 38 40 39 35 33 31 29 29 28 24 20 19 20 22 26 32 36 39 42
21 24 24 23 22 21 21 20 19 18 17 16 15 15 15 15 15 14 13 11 10 10 10 11 11 12 14 15 16 17 19 20 21 22 22 23 25 26 26 27 28 30 33 36 37 39 41 40 39 39 39 37 35 36 36 38 40 38 32 31 32 27 23 24 23 19 16 18 22 26 31 34 36 40
21 22 22 20 20 19 19 18 18 18 17 16 15 15 14 14 14 13 11 10 9 10 10 10 11 12 14 15 16 17 19 20 22 23 23 23 25 26 26 27 27 27 28 31 33 36 38 39 39 39 38 37 35 35 35 36 38 38 32 31 33 29 21 19 20 17 14 17 22 25 28 32 35 38
19 18 16 16 17 18 18 18 17 17 16 15 15 14 14 14 13 11 10 9 9 9 9 10 11 12 13 14 15 17 18 20 21 22 24 24 25 26 27 28 29 28 27 26 27 29 32 35 39 40 39 38 37 36 34 34 34 36 33 29 29 26 19 15 14 13 15 17 20 22 25 29 34 38
14 12 13 15 18 19 18 17 16 16 15 15 15 14 14 13 12 10 9 9 9 9 9 10 11 12 13 13 14 16 17 19 20 21 23 24 25 26 27 28 29 30 30 29 28 27 26 27 33 38 39 39 38 34 32 32 31 31 30 27 25 24 18 10 9 10 13 14 15 19 24 28 34 39
11 13 15 18 19 18 17 16 15 16 15 15 15 14 13 12 11 10 9 8 8 9 9 10 11 12 12 13 14 15 16 17 19 21 22 24 25 27 27 27 28 29 30 30 30 29 26 22 23 27 31 34 35 32 30 30 28 26 25 24 25 24 17 7 6 7 9 10 12 17 23 28 33 38
13 16 17 18 17 16 17 17 16 16 15 15 14 13 12 11 10 9 8 8 9 9 9 10 12 12 12 13 14 16 16 17 18 20 21 22 24 26 27 28 29 29 30 30 30 30 30 26 22 20 20 22 24 26 27 28 25 20 18 19 20 18 10 2 6 8 8 8 10 15 22 27 32 36
15 16 17 17 16 16 16 16 16 16 15 14 14 12 11 11 9 9 9 9 9 9 10 11 11 11 12 13 15 16 17 18 18 19 21 22 22 24 26 27 28 29 29 30 30 30 30 29 26 22 19 16 15 18 25 28 24 16 12 13 16 14 6 6 12 14 12 9 9 13 18 23 27 30
15 16 17 17 16 17 17 16 16 15 14 14 13 12 11 10 9 9 9 9 9 9 10 10 10 11 12 13 15 16 17 18 19 20 21 22 22 23 24 25 26 27 27 28 29 29 29 29 28 25 21 18 14 14 20 25 23 15 10 11 13 11 8 9 13 15 13 10 9 11 15 18 21 25
15 16 16 16 16 17 17 17 16 15 14 13 12 12 11 10 9 9 9 9 9 10 10 10 10 11 12 13 15 16 17 18 19 20 21 21 22 23 24 25 26 26 27 27 28 29 28 28 28 27 25 23 19 16 18 23 23 15 7 7 10 8 7 10 12 13 11 8 8 9 9 12 18 22
16 16 16 16 17 17 17 17 16 14 14 13 12 12 11 10 9 9 9 9 10 10 10 10 10 11 13 14 14 15 17 17 18 20 21 22 22 23 24 25 26 26 27 27 27 27 27 26 27 27 27 27 26 25 26 28 26 19 9 5 6 7 5 7 11 11 9 6 7 8 7 8 14 19
15 16 15 16 17 17 17 16 15 14 14 13 13 12 11 10 10 9 10 10 10 10 10 10 11 12 13 15 15 16 17 18 18 20 21 22 23 24 24 25 26 27 27 28 27 27 28 27 28 28 29 28 28 28 27 24 22 18 13 7 3 3 4 3 6 9 9 8 9 10 9 8 12 16
14 15 15 16 17 17 17 16 16 15 14 13 12 12 11 10 10 10 10 11 11 11 10 11 12 13 14 15 16 17 18 18 19 20 21 22 23 24 24 25 26 26 27 28 28 28 29 30 30 29 28 28 26 24 21 18 15 13 11 7 2 1 1 0 2 6 7 8 11 14 14 13 14 17
14 15 15 16 17 17 17 17 16 15 14 13 13 12 11 10 10 11 11 11 12 11 11 12 13 14 15 16 17 18 18 19 19 20 20 21 22 23 23 24 24 25 27 28 29 30 29 30 30 29 27 26 25 21 19 17 15 13 12 10 6 2 3 1 3 6 6 6 10 15 16 15 17 19
15 15 16 16 17 17 16 16 16 15 15 14 13 12 12 12 11 12 12 12 13 13 13 13 14 15 16 17 18 19 19 19 20 20 21 21 21 22 23 24 24 25 26 27 28 29 29 28 28 27 27 26 25 22 20 18 16 13 10 8 7 5 4 3 3 5 6 7 11 14 14 15 18 21
15 16 16 16 16 17 16 16 16 15 15 14 13 13 13 13 12 13 13 14 14 14 14 15 16 17 18 19 19 20 21 21 21 21 21 22 22 22 23 24 24 25 25 25 25 26 27 27 27 27 27 26 25 23 22 19 15 13 11 8 7 6 3 2 6 9 9 10 12 12 12 12 16 20
14 15 15 15 15 16 17 16 17 16 15 15 15 14 15 15 14 14 15 15 15 16 16 17 18 19 20 21 21 22 22 23 23 22 22 22 23 23 24 24 24 25 25 25 25 25 25 25 26 25 25 25 25 24 23 20 17 15 13 9 6 5 2 3 8 10 10 9 10 12 12 11 13 17
Wind_Direction
263 259 256 257 256 256 256 255 255 256 258 259 259 259 258 259 262 263 263 263 263 262 261 261 261 262 264 266 267 268 270 271 273 275 276 277 279 281 282 284 285 286 287 288 290 289 289 288 285 282 277 273 271 269 267 268 271 273 274 275 275 274 272 268 268 269 267 264 261 259 256 250 248 246
265 261 256 256 257 256 256 256 255 255 257 258 258 258 258 258 260 262 264 264 264 263 263 263 262 263 264 266 267 269 270 271 273 274 276 278 280 281 282 284 285 286 287 288 290 289 289 287 285 281 275 271 269 268 267 267 269 273 275 277 277 277 275 270 268 269 268 265 262 261 258 251 249 248
263 263 259 257 257 257 256 256 256 255 255 256 256 256 257 258 259 261 263 265 265 265 266 265 264 265 266 267 268 269 270 271 272 273 275 277 279 281 282 284 285 286 287 288 289 289 288 287 284 280 273 268 267 267 266 266 268 272 275 277 278 279 279 275 271 268 267 266 263 261 260 254 250 250
258 261 261 259 258 256 255 255 256 255 254 254 254 254 255 257 258 260 262 265 267 268 268 267 267 267 268 269 270 271 271 270 271 273 275 277 279 281 282 284 285 286 287 289 289 289 288 286 283 278 271 266 266 267 266 266 268 271 274 276 278 280 281 280 276 270 266 265 263 262 261 257 252 251
255 257 259 260 259 256 254 253 254 255 254 252 252 254 255 256 258 260 262 265 267 268 268 268 269 269 270 271 272 273 272 271 272 274 276 278 280 281 283 284 285 286 288 289 289 288 287 285 282 276 269 264 264 267 266 267 269 271 274 277 279 281 282 281 278 273 267 264 263 263 261 258 254 252
255 255 256 257 258 255 253 252 252 253 253 251 251 253 255 256 258 260 262 264 266 267 268 268 269 270 271 272 273 274 274 273 274 275 277 279 281 282 283 284 285 287 288 289 289 288 287 284 280 274 268 263 264 266 266 268 270 271 274 277 280 281 282 281 278 273 267 262 260 261 260 257 254 252
255 255 254 254 255 254 253 252 252 252 251 251 251 252 254 256 258 260 262 264 266 267 269 269 269 270 271 272 273 274 274 274 275 276 278 280 281 282 283 284 286 288 288 288 288 287 286 282 278 273 267 263 263 266 267 269 271 273 275 278 280 281 281 281 278 272 266 262 258 257 258 257 254 250
255 254 254 253 253 253 252 251 251 251 250 249 250 251 253 255 257 259 261 263 265 267 269 270 271 272 272 273 273 273 273 274 276 278 279 281 281 283 284 286 288 289 288 288 287 286 284 280 276 272 266 263 264 266 268 269 271 274 277 279 280 281 281 281 278 271 265 263 260 257 256 255 254 250
259 255 253 252 252 251 251 250 249 250 249 249 249 250 252 253 256 258 260 262 264 266 269 271 273 274 273 273 273 273 274 275 277 278 281 282 282 284 286 287 289 290 290 289 287 285 282 278 274 271 267 264 264 266 269 270 273 275 278 280 280 280 281 280 276 269 263 262 261 259 256 254 253 251
263 258 253 251 251 251 251 249 248 249 250 249 249 249 250 251 254 256 258 260 262 266 269 271 274 275 274 273 273 274 276 276 278 280 281 282 284 286 288 289 290 291 291 290 288 285 281 277 273 270 267 265 265 267 270 272 275 277 278 280 280 280 281 279 273 266 261 260 261 260 257 254 252 251
264 262 255 250 249 250 250 249 248 248 249 250 249 248 249 250 252 255 257 259 262 265 268 271 274 275 274 273 274 275 277 278 281 283 283 285 287 289 290 291 292 292 290 289 287 284 281 277 274 271 268 266 267 268 271 274 276 277 278 279 280 280 281 278 272 267 262 260 260 261 259 254 251 250
260 263 258 250 245 247 248 248 248 247 248 249 249 248 249 250 252 254 256 258 261 263 267 271 274 275 274 274 275 276 278 280 282 285 286 289 291 291 292 293 293 292 290 289 286 282 280 277 275 272 269 268 268 270 273 275 276 277 278 279 280 281 281 277 272 268 264 261 259 260 261 256 251 249
257 261 260 252 243 242 245 246 247 246 246 247 248 247 249 250 251 254 255 257 260 262 266 270 272 273 274 275 276 278 280 282 284 286 288 290 291 293 293 294 294 292 290 288 285 281 279 276 274 272 269 269 270 272 274 275 276 276 277 280 281 280 279 276 273 270 267 264 260 257 258 257 253 249
254 259 260 254 243 239 241 243 244 244 244 245 246 246 249 250 251 253 255 257 259 261 265 269 271 272 273 276 278 279 282 283 284 287 288 290 293 294 295 296 295 294 291 288 284 280 278 275 273 271 270 271 272 273 275 276 277 278 279 280 280 279 277 275 273 270 267 265 262 257 255 256 254 250
252 255 256 252 244 238 238 240 241 241 241 244 245 246 249 250 251 253 254 257 259 261 264 268 269 271 273 276 278 279 281 282 284 287 290 293 296 297 298 299 300 300 296 291 286 282 279 276 273 272 273 274 275 276 278 280 281 283 283 282 280 278 277 274 271 267 265 264 264 260 254 253 254 251
248 250 251 250 244 239 237 236 237 239 240 242 245 246 248 249 250 252 255 257 258 260 263 265 267 271 274 276 277 279 281 283 285 289 294 298 299 299 300 302 303 305 301 295 289 284 281 281 278 275 276 277 279 281 283 285 286 286 285 283 282 279 277 274 269 266 265 265 265 263 255 251 252 251
244 246 248 248 245 240 237 234 233 236 239 242 243 244 245 247 250 252 253 255 256 259 262 264 267 271 273 275 278 281 283 285 289 294 298 301 300 300 302 304 306 308 306 302 296 285 281 285 282 279 281 284 286 287 288 289 289 288 287 286 284 281 278 275 269 264 264 265 266 263 256 250 249 249
242 245 247 248 245 241 237 234 233 234 236 239 241 242 244 247 250 251 251 252 255 258 261 264 268 271 272 276 280 283 286 290 295 299 300 301 301 302 306 309 311 313 311 309 303 292 286 289 287 285 289 291 291 291 290 291 290 290 290 288 285 282 278 275 270 263 262 264 265 262 255 248 247 247
240 244 246 247 243 239 236 234 234 235 236 238 239 241 244 246 248 248 249 251 254 257 261 265 268 272 276 280 283 286 290 294 298 300 302 304 305 307 311 313 313 313 312 309 305 298 294 295 292 292 295 295 292 292 292 293 293 292 291 288 285 283 279 275 269 262 260 261 261 258 252 246 245 246
243 244 244 245 242 239 237 234 235 235 235 236 237 240 243 244 245 245 247 250 254 258 263 267 272 276 278 281 285 288 293 296 299 303 306 309 310 310 311 312 311 310 310 308 304 299 299 299 297 297 298 295 292 293 296 297 296 293 291 288 286 283 278 273 266 259 256 257 257 254 248 244 243 244
246 245 245 244 242 239 237 235 234 233 233 234 236 239 241 241 241 242 244 249 254 260 265 269 273 275 277 282 288 293 297 301 304 308 310 309 309 309 309 310 309 308 310 309 303 300 301 302 300 299 298 295 294 297 301 300 297 293 291 289 288 284 277 270 265 259 255 254 253 250 245 242 242 243
245 246 246 245 241 239 238 235 232 230 230 232 235 237 237 236 237 239 242 249 254 260 265 268 270 274 279 286 293 297 302 306 308 310 310 308 308 309 311 312 311 310 312 310 304 301 304 306 305 304 301 298 299 303 305 301 296 291 289 289 290 289 280 271 264 259 256 254 252 248 243 240 240 241
244 245 246 245 239 235 234 232 228 227 229 231 232 233 232 231 233 236 241 249 255 259 263 266 270 277 284 291 298 302 306 308 308 308 308 308 310 313 315 316 313 312 314 312 308 307 311 312 313 314 310 305 305 307 308 302 293 287 286 288 293 295 287 275 267 261 258 256 253 248 242 238 238 239
246 246 245 241 234 230 229 227 224 226 228 229 228 227 226 227 230 235 241 249 254 258 262 266 274 284 291 298 303 306 308 308 308 309 310 312 315 316 317 316 314 314 317 317 314 314 317 319 319 319 316 313 311 312 312 307 299 293 291 291 294 298 292 281 274 268 262 258 253 247 240 235 235 235
246 245 242 237 232 229 227 224 224 225 225 223 222 221 221 224 228 234 241 247 252 256 261 269 280 289 295 300 304 306 307 307 308 311 313 315 317 318 318 317 315 316 319 320 318 319 322 324 323 321 319 316 314 313 313 312 310 306 303 300 299 299 294 285 278 273 265 258 250 242 234 230 229 230
246 243 240 237 232 228 225 224 224 222 218 216 216 216 217 221 227 233 240 244 248 254 261 272 282 289 294 299 303 306 306 308 311 314 316 318 319 320 320 320 319 319 321 322 322 323 326 326 324 322 320 318 314 311 312 315 317 313 308 305 302 303 300 290 280 273 265 256 245 235 228 224 224 224
245 240 239 235 228 223 221 221 219 215 210 208 211 211 212 219 226 231 237 241 245 253 262 272 280 286 293 299 303 304 305 309 315 317 318 319 322 323 324 323 322 321 322 323 324 325 325 325 324 323 323 320 314 311 313 319 322 318 311 303 299 304 305 295 280 271 262 250 239 228 223 220 219 217
241 237 236 232 225 220 217 214 212 208 203 203 206 207 210 217 225 230 234 239 244 253 262 271 279 287 295 299 299 301 306 312 316 317 319 322 325 327 327 326 324 322 322 323 324 323 324 325 326 327 327 322 315 313 317 322 326 325 318 308 300 302 305 298 282 269 260 247 235 226 221 217 213 212
234 232 232 228 222 217 211 207 204 200 198 200 203 206 210 217 224 228 232 237 243 252 263 271 280 290 295 297 300 305 311 314 316 319 322 324 326 327 328 326 325 323 322 323 324 323 323 326 328 329 329 325 317 315 320 326 329 329 325 318 312 307 305 302 290 273 259 245 231 223 217 212 209 208
231 230 228 222 214 208 204 199 196 194 195 198 202 206 212 216 222 225 229 235 243 254 266 275 285 293 296 299 305 310 312 315 318 322 325 325 325 325 326 327 327 326 324 324 325 325 325 326 329 330 330 328 323 321 325 329 331 332 330 326 324 318 307 299 290 275 253 233 221 215 210 207 205 206
231 228 224 214 205 200 196 193 191 191 194 198 202 207 213 216 220 224 228 236 246 257 269 280 289 294 297 302 309 312 315 318 321 324 326 327 327 327 327 328 330 329 327 326 326 326 325 326 328 329 330 332 332 330 331 332 331 331 332 330 329 327 314 291 277 261 236 218 211 207 206 205 205 204
228 223 217 206 197 193 191 191 191 192 195 199 203 208 212 216 220 224 230 239 251 262 273 285 291 294 298 304 311 315 318 320 323 326 328 330 330 331 330 330 331 330 330 329 329 329 328 326 326 329 331 335 337 336 337 337 331 327 329 331 331 330 320 292 264 237 215 206 203 203 204 204 203 200
228 217 205 195 191 191 191 190 190 192 196 201 205 208 212 216 219 225 233 244 256 266 277 287 290 292 298 307 314 317 319 323 325 327 330 331 332 333 333 332 332 331 333 334 333 334 335 331 328 330 332 335 338 340 340 339 332 324 326 331 333 332 325 297 247 213 196 192 194 198 201 201 199 197
212 200 196 193 192 190 188 187 190 194 198 202 206 210 213 216 221 228 237 248 259 269 280 286 287 293 302 312 317 319 321 325 328 329 332 334 334 334 334 334 333 332 333 336 336 336 339 341 336 333 332 333 338 342 342 339 334 326 323 327 329 326 319 289 219 185 167 169 186 195 197 198 196 195
199 193 193 194 192 188 186 188 192 194 198 203 207 211 214 218 225 232 240 252 262 270 279 284 287 296 308 315 317 320 323 327 330 332 335 336 336 335 335 335 335 335 335 337 339 339 341 344 343 340 339 338 340 344 345 343 340 331 323 330 339 338 325 233 141 121 123 145 174 190 193 194 195 195
197 194 192 191 189 187 189 192 194 196 200 204 209 212 216 221 228 235 243 255 265 272 278 284 291 302 313 317 318 320 324 328 331 334 336 337 337 337 337 336 337 337 337 338 341 343 344 346 346 346 349 349 348 355 359 354 347 338 332 344 360 9 24 108 109 100 99 115 151 180 189 193 196 197
192 191 190 190 189 188 191 194 196 198 202 206 211 216 220 225 232 239 249 259 267 274 280 287 297 309 316 317 318 322 325 328 331 334 336 337 338 338 339 339 339 339 340 341 343 345 348 349 348 349 353 355 355 5 11 4 352 341 334 339 354 19 57 84 90 92 95 103 136 171 184 190 194 195
188 188 189 191 192 192 194 195 196 200 204 208 214 220 224 229 236 244 255 264 270 276 283 292 304 313 316 316 318 323 326 328 331 333 334 336 338 339 340 341 342 342 344 345 345 346 350 352 351 351 355 359 358 359 6 5 357 348 339 338 347 12 64 85 83 85 89 103 135 153 164 182 191 192
186 189 192 193 195 197 199 198 198 201 206 212 218 223 227 232 240 249 260 267 273 279 287 298 310 314 315 317 318 322 325 328 330 332 332 334 337 339 340 342 343 344 345 347 347 347 349 352 355 357 359 1 2 2 1 359 357 353 348 342 351 11 55 95 99 96 97 112 131 129 129 169 189 191
188 193 197 198 198 199 199 199 201 205 210 215 221 225 231 237 244 255 264 269 276 284 292 304 313 315 316 319 321 322 325 328 330 332 332 333 336 339 340 341 343 344 345 347 348 349 351 353 356 1 2 1 1 2 358 353 352 353 349 333 327 23 44 69 106 120 129 135 137 134 135 157 179 183
194 198 202 202 202 202 200 201 206 211 214 219 224 228 235 243 250 260 268 273 279 289 297 306 314 317 318 321 323 324 326 328 329 330 332 332 333 336 338 340 341 342 343 345 347 350 353 355 355 358 1 0 357 353 350 348 349 359 6 1 344 139 116 348 163 153 154 154 153 152 148 149 160 163
200 203 205 204 205 206 206 206 211 214 217 222 228 232 239 248 256 264 272 278 283 292 301 307 314 318 320 322 324 325 326 328 328 328 329 330 330 332 334 336 338 340 342 344 347 349 351 353 353 352 354 355 353 348 349 354 357 6 20 22 12 39 90 111 191 195 202 196 174 165 159 156 160 162
205 205 206 207 207 209 211 213 216 219 221 225 231 237 243 251 260 267 275 281 287 294 303 309 313 317 321 323 325 326 326 327 328 327 327 328 328 328 330 333 335 339 341 343 344 346 347 347 348 349 349 349 349 350 353 356 357 5 19 17 1 9 45 78 130 164 179 170 157 160 166 166 167 169
211 211 211 212 211 212 214 216 219 223 226 229 235 242 247 254 262 269 276 283 290 296 303 309 313 316 320 322 324 326 326 326 327 326 326 325 325 325 327 330 332 334 337 339 340 341 342 342 343 346 347 344 345 349 351 352 355 5 14 10 0 0 12 134 132 129 136 142 146 156 169 171 171 175
220 221 221 221 219 218 219 219 222 227 230 234 239 245 251 257 263 271 277 284 291 297 303 309 312 315 318 320 322 324 325 325 325 326 325 323 323 323 323 326 328 330 331 333 334 335 337 338 339 341 343 343 344 345 345 346 352 360 2 359 359 3 359 178 163 154 152 157 163 170 175 174 176 181